H1 CPF 2 NER 2024 1 28 9 028 01 glonass127 H2 1106403 9127 37869 2024 1 28 0 0 0 2024 1 31 23 45 0 900 1 1 0 0 0 1 H9 10 0 60337 0.00000 0 -6554501.347 13576302.849 20627161.166 10 0 60337 900.00000 0 -8700836.002 14722428.349 18973245.409 10 0 60337 1800.00000 0 -10562685.429 15910174.544 16952331.971 10 0 60337 2700.00000 0 -12110132.170 17082018.947 14603229.167 10 0 60337 3600.00000 0 -13325682.723 18177501.802 11971153.432 10 0 60337 4500.00000 0 -14204764.653 19135809.581 9106883.630 10 0 60337 5400.00000 0 -14755691.142 19898401.123 6065801.769 10 0 60337 6300.00000 0 -14999092.545 20411566.427 2906836.567 10 0 60337 7200.00000 0 -14966836.781 20628809.642 -308671.120 10 0 60337 8100.00000 0 -14700482.152 20512954.038 -3518159.657 10 0 60337 9000.00000 0 -14249326.501 20037877.395 -6659071.532 10 0 60337 9900.00000 0 -13668134.520 19189801.167 -9670086.977 10 0 60337 10800.00000 0 -13014639.539 17968075.275 -12492340.700 10 0 60337 11700.00000 0 -12346926.655 16385421.712 -15070595.916 10 0 60337 12600.00000 0 -11720809.921 14467623.391 -17354350.296 10 0 60337 13500.00000 0 -11187317.093 12252668.725 -19298849.743 10 0 60337 14400.00000 0 -10790391.225 9789386.169 -20865987.824 10 0 60337 15300.00000 0 -10564909.192 7135625.335 -22025071.123 10 0 60337 16200.00000 0 -10535103.398 4356061.155 -22753433.928 10 0 60337 17100.00000 0 -10713455.374 1519713.986 -23036889.119 10 0 60337 18000.00000 0 -11100109.149 -1302709.043 -22870005.863 10 0 60337 18900.00000 0 -11682829.503 -4041538.639 -22256208.776 10 0 60337 19800.00000 0 -12437506.311 -6630818.501 -21207697.196 10 0 60337 20700.00000 0 -13329182.345 -9010818.074 -19745187.232 10 0 60337 21600.00000 0 -14313559.244 -11130277.533 -17897483.161 10 0 60337 22500.00000 0 -15338915.773 -12948291.563 -15700888.302 10 0 60337 23400.00000 0 -16348354.990 -14435754.531 -13198468.944 10 0 60337 24300.00000 0 -17282283.223 -15576308.866 -10439187.753 10 0 60337 25200.00000 0 -18081014.361 -16366760.039 -7476925.633 10 0 60337 26100.00000 0 -18687388.288 -16816944.402 -4369413.020 10 0 60337 27000.00000 0 -19049292.473 -16949059.432 -1177093.054 10 0 60337 27900.00000 0 -19121980.608 -16796488.475 2038060.068 10 0 60337 28800.00000 0 -18870091.545 -16402172.973 5213743.849 10 0 60337 29700.00000 0 -18269285.096 -15816603.568 8288527.865 10 0 60337 30600.00000 0 -17307427.843 -15095516.628 11203029.039 10 0 60337 31500.00000 0 -15985281.200 -14297394.053 13901040.066 10 0 60337 32400.00000 0 -14316664.784 -13480871.461 16330590.927 10 0 60337 33300.00000 0 -12328089.652 -12702162.567 18444925.074 10 0 60337 34200.00000 0 -10057877.441 -12012606.111 20203373.896 10 0 60337 35100.00000 0 -7554802.025 -11456435.900 21572115.151 10 0 60337 36000.00000 0 -4876309.083 -11068864.927 22524803.249 10 0 60337 36900.00000 0 -2086385.604 -10874561.490 23043061.324 10 0 60337 37800.00000 0 746835.021 -10886579.279 23116827.330 10 0 60337 38700.00000 0 3553636.391 -11105785.116 22744548.419 10 0 60337 39600.00000 0 6265348.236 -11520808.198 21933220.046 10 0 60337 40500.00000 0 8816935.899 -12108513.807 20698268.428 10 0 60337 41400.00000 0 11149445.899 -12834983.443 19063277.173 10 0 60337 42300.00000 0 13212208.469 -13656962.811 17059561.286 10 0 60337 43200.00000 0 14964707.102 -14523719.852 14725594.158 10 0 60337 44100.00000 0 16378037.858 -15379237.818 12106295.737 10 0 60337 45000.00000 0 17435897.100 -16164653.862 9252192.780 10 0 60337 45900.00000 0 18135055.157 -16820842.542 6218464.790 10 0 60337 46800.00000 0 18485294.200 -17291036.453 3063891.911 10 0 60337 47700.00000 0 18508810.745 -17523373.417 -150276.270 10 0 60337 48600.00000 0 18239105.787 -17473261.482 -3361509.816 10 0 60337 49500.00000 0 17719407.500 -17105459.603 -6507222.253 10 0 60337 50400.00000 0 17000691.876 -16395782.946 -9526004.351 10 0 60337 51300.00000 0 16139384.544 -15332357.117 -12358842.297 10 0 60337 52200.00000 0 15194841.410 -13916364.492 -14950294.436 10 0 60337 53100.00000 0 14226716.020 -12162247.437 -17249601.170 10 0 60337 54000.00000 0 13292327.038 -10097356.751 -19211703.833 10 0 60337 54900.00000 0 12444139.643 -7761057.650 -20798150.245 10 0 60337 55800.00000 0 11727469.981 -5203329.479 -21977867.097 10 0 60337 56700.00000 0 11178512.144 -2482917.378 -22727782.403 10 0 60337 57600.00000 0 10822773.032 334886.205 -23033284.692 10 0 60337 58500.00000 0 10673982.523 3180736.228 -22888509.390 10 0 60337 59400.00000 0 10733525.422 5983900.096 -22296446.819 10 0 60337 60300.00000 0 10990418.742 8674980.106 -21268870.266 10 0 60337 61200.00000 0 11421834.025 11188578.045 -19826086.602 10 0 60337 62100.00000 0 11994140.639 13465789.759 -17996515.805 10 0 60337 63000.00000 0 12664423.549 15456425.278 -15816109.381 10 0 60337 63900.00000 0 13382408.734 17120862.325 -13327621.086 10 0 60337 64800.00000 0 14092712.211 18431457.326 -10579746.250 10 0 60337 65700.00000 0 14737315.298 19373457.343 -7626148.584 10 0 60337 66600.00000 0 15258159.647 19945377.910 -4524395.375 10 0 60337 67500.00000 0 15599751.312 20158834.639 -1334823.452 10 0 60337 68400.00000 0 15711663.494 20037839.533 1880640.801 10 0 60337 69300.00000 0 15550832.800 19617595.272 5059683.667 10 0 60337 70200.00000 0 15083553.289 18942841.357 8140805.071 10 0 60337 71100.00000 0 14287085.972 18065824.115 11064495.527 10 0 60337 72000.00000 0 13150817.978 17043977.309 13774367.287 10 0 60337 72900.00000 0 11676924.581 15937411.296 16218219.524 10 0 60337 73800.00000 0 9880507.899 14806315.438 18349019.058 10 0 60337 74700.00000 0 7789207.468 13708381.271 20125780.141 10 0 60337 75600.00000 0 5442299.115 12696352.167 21514328.871 10 0 60337 76500.00000 0 2889318.933 11815799.455 22487939.999 10 0 60337 77400.00000 0 188267.976 11103215.430 23027836.015 10 0 60337 78300.00000 0 -2596530.296 10584500.568 23123540.554 10 0 60337 79200.00000 0 -5396834.110 10273906.407 22773080.354 10 0 60337 80100.00000 0 -8143052.860 10173477.313 21983032.058 10 0 60337 81000.00000 0 -10766879.123 10273014.462 20768412.389 10 0 60337 81900.00000 0 -13203877.458 10550564.466 19152412.423 10 0 60337 82800.00000 0 -15395925.325 10973413.994 17165979.004 10 0 60337 83700.00000 0 -17293406.728 11499551.069 14847248.839 10 0 60337 84600.00000 0 -18857068.287 12079534.425 12240843.291 10 0 60337 85500.00000 0 -20059460.323 12658694.982 9397034.671 10 0 60338 0.00000 0 -20885901.740 13179578.940 6370797.729 10 0 60338 900.00000 0 -21334926.917 13584531.252 3220760.864 10 0 60338 1800.00000 0 -21418192.621 13818310.229 8079.967 10 0 60338 2700.00000 0 -21159847.893 13830623.154 -3204749.459 10 0 60338 3600.00000 0 -20595390.016 13578473.238 -6355114.734 10 0 60338 4500.00000 0 -19770053.552 13028216.255 -9381519.925 10 0 60338 5400.00000 0 -18736799.323 12157236.432 -12224805.425 10 0 60338 6300.00000 0 -17553988.101 10955166.891 -14829327.361 10 0 60338 7200.00000 0 -16282838.009 9424599.252 -17144071.362 10 0 60338 8100.00000 0 -14984774.590 7581248.880 -19123676.472 10 0 60338 9000.00000 0 -13718787.559 5453565.892 -20729346.763 10 0 60338 9900.00000 0 -12538908.284 3081806.172 -21929630.701 10 0 60338 10800.00000 0 -11491916.864 516600.302 -22701051.318 10 0 60338 11700.00000 0 -10615377.620 -2182919.801 -23028573.698 10 0 60338 12600.00000 0 -9936087.362 -4951357.385 -22905900.019 10 0 60338 13500.00000 0 -9469002.518 -7719555.679 -22335586.377 10 0 60338 14400.00000 0 -9216690.159 -10417264.738 -21328979.659 10 0 60338 15300.00000 0 -9169324.914 -12975857.202 -19905976.725 10 0 60338 16200.00000 0 -9305229.969 -15330978.232 -18094612.098 10 0 60338 17100.00000 0 -9591936.697 -17425018.110 -15930483.969 10 0 60338 18000.00000 0 -9987715.233 -19209304.161 -13456031.760 10 0 60338 18900.00000 0 -10443508.233 -20645921.210 -10719681.447 10 0 60338 19800.00000 0 -10905183.217 -21709086.186 -7774877.368 10 0 60338 20700.00000 0 -11316005.833 -22386021.891 -4679021.371 10 0 60338 21600.00000 0 -11619227.686 -22677296.549 -1492341.602 10 0 60338 22500.00000 0 -11760678.363 -22596618.490 1723285.800 10 0 60338 23400.00000 0 -11691251.973 -22170098.232 4905538.392 10 0 60338 24300.00000 0 -11369183.862 -21435012.334 7992849.001 10 0 60338 25200.00000 0 -10762022.772 -20438123.676 10925584.329 10 0 60338 26100.00000 0 -9848217.068 -19233630.637 13647178.795 10 0 60338 27000.00000 0 -8618250.228 -17880832.151 16105203.323 10 0 60338 27900.00000 0 -7075279.599 -16441606.407 18252350.558 10 0 60338 28800.00000 0 -5235252.937 -14977807.677 20047319.879 10 0 60338 29700.00000 0 -3126498.419 -13548688.256 21455587.736 10 0 60338 30600.00000 0 -788804.920 -12208450.712 22450050.938 10 0 60338 31500.00000 0 1727970.395 -11004029.907 23011532.692 10 0 60338 32400.00000 0 4365711.393 -9973194.602 23129143.322 10 0 60338 33300.00000 0 7060197.027 -9143045.503 22800489.801 10 0 60338 34200.00000 0 9743514.147 -8528970.761 22031730.253 10 0 60338 35100.00000 0 12346632.681 -8134101.669 20837471.869 10 0 60338 36000.00000 0 14802039.912 -7949291.429 19240512.806 10 0 60338 36900.00000 0 17046327.607 -7953618.900 17271431.042 10 0 60338 37800.00000 0 19022626.874 -8115397.994 14968025.534 10 0 60338 38700.00000 0 20682790.878 -8393652.682 12374617.637 10 0 60338 39600.00000 0 21989234.795 -8739998.097 9541223.390 10 0 60338 40500.00000 0 22916355.518 -9100850.832 6522610.014 10 0 60338 41400.00000 0 23451470.161 -9419877.034 3377252.657 10 0 60338 42300.00000 0 23595231.762 -9640575.880 166210.050 10 0 60338 43200.00000 0 23361502.167 -9708889.192 -3048059.910 10 0 60338 44100.00000 0 22776684.824 -9575725.653 -6202921.652 10 0 60338 45000.00000 0 21878543.323 -9199290.619 -9236795.875 10 0 60338 45900.00000 0 20714553.842 -8547119.885 -12090380.423 10 0 60338 46800.00000 0 19339860.144 -7597727.739 -14707832.273 10 0 60338 47700.00000 0 17814917.470 -6341795.732 -17037885.120 10 0 60338 48600.00000 0 16202925.714 -4782848.201 -19034878.270 10 0 60338 49500.00000 0 14567161.728 -2937382.703 -20659674.291 10 0 60338 50400.00000 0 12968325.455 -834447.259 -21880445.325 10 0 60338 51300.00000 0 11462013.978 1485319.550 -22673310.958 10 0 60338 52200.00000 0 10096432.029 3971146.098 -23022813.964 10 0 60338 53100.00000 0 8910437.063 6564021.566 -22922223.988 10 0 60338 54000.00000 0 7932002.117 9198945.876 -22373663.189 10 0 60338 54900.00000 0 7177161.225 11807440.181 -21388051.899 10 0 60338 55800.00000 0 6649480.904 14320211.158 -19984876.392 10 0 60338 56700.00000 0 6340078.158 16669856.174 -18191784.744 10 0 60338 57600.00000 0 6228181.650 18793494.988 -16044020.438 10 0 60338 58500.00000 0 6282209.264 20635217.283 -13583706.796 10 0 60338 59400.00000 0 6461313.161 22148243.857 -10858998.304 10 0 60338 60300.00000 0 6717323.727 23296712.048 -7923117.466 10 0 60338 61200.00000 0 6997007.215 24057012.512 -4833297.937 10 0 60338 62100.00000 0 7244539.198 24418623.998 -1649656.210 10 0 60338 63000.00000 0 7404087.581 24384414.301 1565984.937 10 0 60338 63900.00000 0 7422395.173 23970398.177 4751297.509 10 0 60338 64800.00000 0 7251252.784 23204965.736 7844650.361 10 0 60338 65700.00000 0 6849759.304 22127616.644 10786289.404 10 0 60338 66600.00000 0 6186274.912 20787255.463 13519474.053 10 0 60338 67500.00000 0 5239986.966 19240120.951 15991549.601 10 0 60338 68400.00000 0 4002024.555 17547436.359 18154936.883 10 0 60338 69300.00000 0 2476076.496 15772878.329 19968022.516 10 0 60338 70200.00000 0 678487.848 13979968.525 21395935.127 10 0 60338 71100.00000 0 -1362168.910 12229494.497 22411195.115 10 0 60338 72000.00000 0 -3606030.898 10577064.527 22994227.604 10 0 60338 72900.00000 0 -6003352.707 9070895.358 23133730.449 10 0 60338 73800.00000 0 -8496329.163 7749922.205 22826891.284 10 0 60338 74700.00000 0 -11021260.407 6642307.489 22079449.694 10 0 60338 75600.00000 0 -13510973.020 5764408.897 20905602.833 10 0 60338 76500.00000 0 -15897400.306 5120249.156 19327754.951 10 0 60338 77400.00000 0 -18114217.884 4701509.916 17376113.669 10 0 60338 78300.00000 0 -20099427.774 4488051.145 15088138.274 10 0 60338 79200.00000 0 -21797785.266 4448936.029 12507847.793 10 0 60338 80100.00000 0 -23162968.220 4543920.552 9684999.385 10 0 60338 81000.00000 0 -24159397.908 4725347.308 6674150.206 10 0 60338 81900.00000 0 -24763633.958 4940365.704 3533618.672 10 0 60338 82800.00000 0 -24965282.781 5133386.141 324363.635 10 0 60338 83700.00000 0 -24767378.653 5248664.915 -2891197.592 10 0 60338 84600.00000 0 -24186218.589 5232909.884 -6050409.492 10 0 60338 85500.00000 0 -23250655.149 5037795.005 -9091612.278 10 0 60339 0.00000 0 -22000874.883 4622274.730 -11955363.802 10 0 60339 900.00000 0 -20486711.610 3954596.758 -14585625.074 10 0 60339 1800.00000 0 -18765566.731 3013924.825 -16930880.065 10 0 60339 2700.00000 0 -16900022.293 1791498.445 -18945170.545 10 0 60339 3600.00000 0 -14955250.040 291277.527 -20589019.434 10 0 60339 4500.00000 0 -12996326.712 -1469958.459 -21830223.985 10 0 60339 5400.00000 0 -11085570.745 -3463063.130 -22644501.308 10 0 60339 6300.00000 0 -9280014.482 -5647509.911 -23015972.362 10 0 60339 7200.00000 0 -7629120.031 -7972871.714 -22937474.277 10 0 60339 8100.00000 0 -6172835.940 -10380731.007 -22410694.829 10 0 60339 9000.00000 0 -4940076.767 -12806939.043 -21446126.946 10 0 60339 9900.00000 0 -3947688.945 -15184127.993 -20062845.091 10 0 60339 10800.00000 0 -3199944.853 -17444369.085 -18288109.349 10 0 60339 11700.00000 0 -2688584.021 -19521863.940 -16156806.695 10 0 60339 12600.00000 0 -2393396.595 -21355555.256 -13710742.352 10 0 60339 13500.00000 0 -2283320.934 -22891547.096 -10997797.188 10 0 60339 14400.00000 0 -2318005.302 -24085233.756 -8070969.669 10 0 60339 15300.00000 0 -2449764.219 -24903049.144 -4987323.029 10 0 60339 16200.00000 0 -2625843.714 -25323765.377 -1806859.870 10 0 60339 17100.00000 0 -2790897.409 -25339288.734 1408652.616 10 0 60339 18000.00000 0 -2889567.258 -24954922.670 4596883.095 10 0 60339 18900.00000 0 -2869059.335 -24189089.985 7696138.678 10 0 60339 19800.00000 0 -2681606.224 -23072528.812 10646546.704 10 0 60339 20700.00000 0 -2286713.206 -21646998.535 13391193.803 10 0 60339 21600.00000 0 -1653095.212 -19963551.577 15877201.814 10 0 60339 22500.00000 0 -760224.889 -18080444.039 18056721.846 10 0 60339 23400.00000 0 400571.449 -16060772.281 19887829.696 10 0 60339 24300.00000 0 1825514.591 -13969932.793 21335307.910 10 0 60339 25200.00000 0 3498294.288 -11873009.106 22371301.965 10 0 60339 26100.00000 0 5390515.612 -9832191.849 22975840.100 10 0 60339 27000.00000 0 7462652.326 -7904336.230 23137208.592 10 0 60339 27900.00000 0 9665469.612 -6138755.434 22852176.307 10 0 60339 28800.00000 0 11941859.757 -4575338.998 22126064.557 10 0 60339 29700.00000 0 14229017.874 -3243072.288 20972660.414 10 0 60339 30600.00000 0 16460870.808 -2159017.354 19413973.877 10 0 60339 31500.00000 0 18570661.720 -1327797.277 17479841.580 10 0 60339 32400.00000 0 20493585.806 -741605.958 15207382.188 10 0 60339 33300.00000 0 22169369.669 -380744.216 12640311.140 10 0 60339 34200.00000 0 23544687.950 -214661.526 9828125.102 10 0 60339 35100.00000 0 24575316.463 -203461.691 6825169.199 10 0 60339 36000.00000 0 25227930.773 -299811.076 3689602.792 10 0 60339 36900.00000 0 25481472.900 -451170.495 482282.219 10 0 60339 37800.00000 0 25328026.152 -602257.350 -2734418.690 10 0 60339 38700.00000 0 24773158.244 -697633.874 -5897827.531 10 0 60339 39600.00000 0 23835715.138 -684310.871 -8946207.154 10 0 60339 40500.00000 0 22547071.499 -514254.693 -11819978.979 10 0 60339 41400.00000 0 20949867.087 -146688.441 -14462909.942 10 0 60339 42300.00000 0 19096280.963 449913.433 -16823237.534 10 0 60339 43200.00000 0 17045915.692 1296225.209 -18854708.455 10 0 60339 44100.00000 0 14863381.066 2400935.873 -20517508.177 10 0 60339 45000.00000 0 12615680.221 3760132.105 -21779060.991 10 0 60339 45900.00000 0 10369509.757 5357226.803 -22614683.169 10 0 60339 46800.00000 0 8188589.294 7163437.905 -23008075.177 10 0 60339 47700.00000 0 6131134.442 9138798.094 -22951642.598 10 0 60339 48600.00000 0 4247580.732 11233652.851 -22446639.423 10 0 60339 49500.00000 0 2578654.726 13390583.047 -21503131.347 10 0 60339 50400.00000 0 1153873.167 15546669.928 -20139780.755 10 0 60339 51300.00000 0 -9467.930 17636005.712 -18383459.032 10 0 60339 52200.00000 0 -906773.900 19592342.758 -16268695.496 10 0 60339 53100.00000 0 -1546084.399 21351768.672 -13836975.699 10 0 60339 54000.00000 0 -1947465.118 22855294.174 -11135904.932 10 0 60339 54900.00000 0 -2141887.726 24051244.891 -8218255.306 10 0 60339 55800.00000 0 -2169649.144 24897357.228 -5140917.017 10 0 60339 56700.00000 0 -2078400.457 25362491.678 -1963775.922 10 0 60339 57600.00000 0 -1920871.688 25427893.746 1251459.397 10 0 60339 58500.00000 0 -1752390.742 25087952.127 4442457.387 10 0 60339 59400.00000 0 -1628302.533 24350425.214 7547466.540 10 0 60339 60300.00000 0 -1601397.576 23236129.295 10506498.696 10 0 60339 61200.00000 0 -1719457.895 21778104.001 13262470.646 10 0 60339 62100.00000 0 -2023022.345 20020291.893 15762283.554 10 0 60339 63000.00000 0 -2543463.657 18015788.410 17957821.389 10 0 60339 63900.00000 0 -3301456.077 15824735.408 19806851.476 10 0 60339 64800.00000 0 -4305896.171 13511945.187 21273812.378 10 0 60339 65700.00000 0 -5553320.796 11144352.135 22330476.456 10 0 60339 66600.00000 0 -7027846.080 8788395.425 22956476.555 10 0 60339 67500.00000 0 -8701630.395 6507438.479 23139688.479 10 0 60339 68400.00000 0 -10535843.439 4359329.116 22876463.018 10 0 60339 69300.00000 0 -12482103.305 2394198.678 22171703.413 10 0 60339 70200.00000 0 -14484324.687 652588.868 21038786.354 10 0 60339 71100.00000 0 -16480904.738 -836017.712 19499326.739 10 0 60339 72000.00000 0 -18407159.014 -2054203.257 17582788.829 10 0 60339 72900.00000 0 -20197909.280 -2997114.885 15325948.776 10 0 60339 73800.00000 0 -21790117.874 -3672437.608 12772216.079 10 0 60339 74700.00000 0 -23125460.354 -4099839.854 9970824.187 10 0 60339 75600.00000 0 -24152729.498 -4309912.930 6975903.189 10 0 60339 76500.00000 0 -24829969.509 -4342647.057 3845450.199 10 0 60339 77400.00000 0 -25126249.330 -4245506.378 640215.754 10 0 60339 78300.00000 0 -25022998.109 -4071182.926 -2577473.115 10 0 60339 79200.00000 0 -24514843.585 -3875124.020 -5744930.396 10 0 60339 80100.00000 0 -23609914.739 -3712938.131 -8800344.787 10 0 60339 81000.00000 0 -22329592.692 -3637790.507 -11684004.115 10 0 60339 81900.00000 0 -20707717.506 -3697901.119 -14339484.685 10 0 60339 82800.00000 0 -18789282.201 -3934253.926 -16714779.925 10 0 60339 83700.00000 0 -16628667.728 -4378617.804 -18763343.834 10 0 60339 84600.00000 0 -14287492.870 -5051966.362 -20445026.378 10 0 60339 85500.00000 0 -11832170.091 -5963366.716 -21726880.342 10 0 60340 0.00000 0 -9331271.508 -7109386.742 -22583821.998 10 0 60340 900.00000 0 -6852815.901 -8474048.481 -22999131.781 10 0 60340 1800.00000 0 -4461595.757 -10029329.165 -22964783.390 10 0 60340 2700.00000 0 -2216653.558 -11736191.027 -22481596.252 10 0 60340 3600.00000 0 -169017.474 -13546094.466 -21559207.604 10 0 60340 4500.00000 0 1640209.628 -15402930.191 -20215866.146 10 0 60340 5400.00000 0 3181328.155 -17245287.293 -18478052.657 10 0 60340 6300.00000 0 4437026.352 -19008960.035 -16379936.641 10 0 60340 7200.00000 0 5402832.629 -20629586.173 -13962681.666 10 0 60340 8100.00000 0 6087019.966 -22045304.529 -11273615.004 10 0 60340 9000.00000 0 6509970.230 -23199319.278 -8365279.913 10 0 60340 9900.00000 0 6703029.211 -24042263.056 -5294391.023 10 0 60340 10800.00000 0 6706904.583 -24534260.261 -2120714.935 10 0 60340 11700.00000 0 6569677.860 -24646605.287 1094100.842 10 0 60340 12600.00000 0 6344517.079 -24362987.261 4287726.938 10 0 60340 13500.00000 0 6087188.642 -23680212.338 7398355.537 10 0 60340 14400.00000 0 5853474.243 -22608395.894 10365885.187 10 0 60340 15300.00000 0 5696601.770 -21170619.039 13133064.929 10 0 60340 16200.00000 0 5664797.480 -19402065.853 15646577.189 10 0 60340 17100.00000 0 5799060.910 -17348678.722 17858040.552 10 0 60340 18000.00000 0 6131254.089 -15065388.354 19724915.410 10 0 60340 18900.00000 0 6682583.247 -12613991.677 21211297.635 10 0 60340 19800.00000 0 7462534.969 -10060764.418 22288587.481 10 0 60340 20700.00000 0 8468310.192 -7473905.265 22936023.107 10 0 60340 21600.00000 0 9684779.405 -4920914.754 23141070.251 10 0 60340 22500.00000 0 11084961.596 -2466014.303 22899661.728 10 0 60340 23400.00000 0 12631008.522 -167709.192 22216282.541 10 0 60340 24300.00000 0 14275655.747 1923406.458 21103898.545 10 0 60340 25200.00000 0 15964082.977 3766513.991 19583728.858 10 0 60340 26100.00000 0 17636109.474 5332027.921 17684864.444 10 0 60340 27000.00000 0 19228636.256 6602587.101 15443737.789 10 0 60340 27900.00000 0 20678235.996 7573537.776 12903451.061 10 0 60340 28800.00000 0 21923784.459 8252887.343 10112972.859 10 0 60340 29700.00000 0 22909024.492 8660729.110 7126216.342 10 0 60340 30600.00000 0 23584955.110 8828160.298 4001014.237 10 0 60340 31500.00000 0 23911944.238 8795736.881 798008.906 10 0 60340 32400.00000 0 23861474.193 8611528.824 -2420521.972 10 0 60340 33300.00000 0 23417443.489 8328856.900 -5591881.455 10 0 60340 34200.00000 0 22576966.700 8003806.634 -8654186.782 10 0 60340 35100.00000 0 21350635.130 7692625.405 -11547594.840 10 0 60340 36000.00000 0 19762223.960 7449114.622 -14215493.810 10 0 60340 36900.00000 0 17847855.421 7322129.902 -16605635.393 10 0 60340 37800.00000 0 15654651.279 7353298.113 -18671183.000 10 0 60340 38700.00000 0 13238930.211 7575051.185 -20371653.005 10 0 60340 39600.00000 0 10664025.805 8009063.026 -21673728.376 10 0 60340 40500.00000 0 7997817.482 8665158.417 -22551926.986 10 0 60340 41400.00000 0 5310079.276 9540742.127 -22989110.195 10 0 60340 42300.00000 0 2669759.277 10620773.681 -22976820.990 10 0 60340 43200.00000 0 142305.363 11878289.293 -22515444.910 10 0 60340 44100.00000 0 -2212849.469 13275448.571 -21614191.026 10 0 60340 45000.00000 0 -4344536.137 14765060.707 -20290894.234 10 0 60340 45900.00000 0 -6211738.799 16292524.169 -18571644.133 10 0 60340 46800.00000 0 -7785046.379 17798096.189 -16490249.426 10 0 60340 47700.00000 0 -9047607.413 19219394.420 -14087550.277 10 0 60340 48600.00000 0 -9995551.075 20494023.579 -11410594.172 10 0 60340 49500.00000 0 -10637860.235 21562215.170 -8511693.422 10 0 60340 50400.00000 0 -10995705.897 22369368.382 -5447384.757 10 0 60340 51300.00000 0 -11101275.099 22868385.297 -2277312.985 10 0 60340 52200.00000 0 -10996145.538 23021702.943 936938.146 10 0 60340 53100.00000 0 -10729278.729 22802938.237 4133044.225 10 0 60340 54000.00000 0 -10354718.843 22198078.726 7249143.966 10 0 60340 54900.00000 0 -9929095.821 21206171.482 10225025.469 10 0 60340 55800.00000 0 -9509038.509 19839483.594 13003272.844 10 0 60340 56700.00000 0 -9148606.321 18123129.614 15530352.527 10 0 60340 57600.00000 0 -8896846.208 16094183.008 17757620.350 10 0 60340 58500.00000 0 -8795575.725 13800309.444 19642232.261 10 0 60340 59400.00000 0 -8877483.106 11297978.644 21147943.728 10 0 60340 60300.00000 0 -9164621.889 8650328.000 22245784.945 10 0 60340 61200.00000 0 -9667361.418 5924764.649 22914601.132 10 0 60340 62100.00000 0 -10383836.080 3190402.733 23141449.357 10 0 60340 63000.00000 0 -11299916.138 515438.759 22921845.441 10 0 60340 63900.00000 0 -12389702.171 -2035429.523 22259856.652 10 0 60340 64800.00000 0 -13616524.215 -4403437.092 21168038.020 10 0 60340 65700.00000 0 -14934406.410 -6537940.338 19667212.333 10 0 60340 66600.00000 0 -16289939.009 -8398271.687 17786096.172 10 0 60340 67500.00000 0 -17624482.736 -9955184.307 15560776.740 10 0 60340 68400.00000 0 -18876616.363 -11191827.006 13034046.779 10 0 60340 69300.00000 0 -19984727.471 -12104207.979 10254607.523 10 0 60340 70200.00000 0 -20889639.469 -12701126.678 7276152.353 10 0 60340 71100.00000 0 -21537165.163 -13003574.813 4156346.507 10 0 60340 72000.00000 0 -21880478.974 -13043629.607 955720.904 10 0 60340 72900.00000 0 -21882206.304 -12862884.077 -2263499.497 10 0 60340 73800.00000 0 -21516139.386 -12510479.133 -5438610.221 10 0 60340 74700.00000 0 -20768503.956 -12040819.937 -8507660.446 10 0 60340 75600.00000 0 -19638719.657 -11511073.298 -11410679.434 10 0 60340 76500.00000 0 -18139618.406 -10978553.080 -14090870.440 10 0 60340 77400.00000 0 -16297108.229 -10498106.252 -16495746.413 10 0 60340 78300.00000 0 -14149294.050 -10119612.792 -18578182.860 10 0 60340 79200.00000 0 -11745090.646 -9885708.205 -20297364.824 10 0 60340 80100.00000 0 -9142385.250 -9829828.038 -21619607.223 10 0 60340 81000.00000 0 -6405827.030 -9974659.818 -22519030.655 10 0 60340 81900.00000 0 -3604336.985 -10331070.083 -22978078.121 10 0 60340 82800.00000 0 -808444.025 -10897553.317 -22987861.761 10 0 60340 83700.00000 0 1912439.665 -11660226.689 -22548332.615 10 0 60340 84600.00000 0 4492688.444 -12593370.562 -21668270.479 10 0 60340 85500.00000 0 6872965.426 -13660490.938 -20365094.917 99